DateTimeUTC,F1_A11,F1_S11,BsB_S11,BsG_S11,BsR_S11,BbsB_S11,BbsG_S11,BbsR_S11,BaB_A11,BaG_A11,BaR_A11,Tu_S11,T_S11,Uu_S11,U_S11,P_S11,T1_A11
2021-08-26T17:00:00Z,00000200,20000000,,,,,,,-000.21,-000.27,-000.21,20.0,26.6,05.2,03.5,0672.2,31.0
2021-08-26T17:01:00Z,00000200,20000000,,,,,,,0000.12,0000.49,0000.42,20.0,26.6,05.2,03.5,0672.2,31.0
2021-08-26T17:02:00Z,00000200,20000000,,,,,,,0000.20,-000.04,0000.08,20.0,26.6,05.2,03.5,0672.2,31.0
2021-08-26T17:03:00Z,00000200,60000000,,,,,,,0000.62,0000.74,0000.52,20.0,26.6,05.2,03.5,0672.3,31.0
2021-08-26T17:04:00Z,00000200,40000000,0004.06,0002.86,0002.71,0000.76,0000.15,0000.39,0000.69,0000.35,0000.49,20.1,26.5,05.4,03.7,0673.2,31.0
2021-08-26T17:05:00Z,00000200,00000000,0004.08,0003.48,0001.85,0000.00,0000.65,0000.36,0000.85,0000.89,0000.63,20.2,26.5,05.4,03.7,0673.2,31.0
2021-08-26T17:06:00Z,00000200,00000000,0004.76,0003.45,0001.76,0000.65,0000.55,0000.17,0000.53,0000.30,0000.27,20.2,26.5,05.4,03.7,0673.2,31.0
2021-08-26T17:07:00Z,00000200,00000000,0004.56,0003.10,0001.86,0000.02,0000.19,0000.43,0000.49,0000.34,0000.55,20.2,26.5,05.4,03.7,0673.2,31.0
2021-08-26T17:08:00Z,00000200,00000000,0005.06,0003.19,0002.18,0001.28,0000.36,0000.39,0000.84,0001.09,0000.50,20.2,26.5,05.4,03.7,0673.2,31.0
2021-08-26T17:09:00Z,00000200,00000000,0004.24,0003.49,0002.39,0001.21,0000.36,0000.49,0001.30,0001.22,0001.08,20.2,26.4,05.4,03.7,0673.2,31.0
2021-08-26T17:10:00Z,00000200,00000000,0004.70,0003.49,0002.49,0000.94,0000.26,0000.29,0000.31,0000.63,0000.80,20.2,26.5,05.5,03.8,0673.2,31.0
2021-08-26T17:11:00Z,00000200,00000000,0003.79,0002.45,0001.86,0000.72,0000.33,0000.61,0001.08,0000.63,0000.59,20.2,26.4,05.4,03.7,0673.2,31.0
2021-08-26T17:12:00Z,00000200,00000000,0003.24,0002.68,0001.88,-000.08,0000.01,0000.19,0000.55,0000.68,0000.15,20.2,26.4,05.5,03.7,0673.2,31.0
2021-08-26T17:13:00Z,00000200,00000000,0002.55,0002.24,0001.79,0000.65,0000.45,0000.21,0000.37,0000.31,0000.36,20.2,26.5,05.5,03.8,0673.2,31.0
2021-08-26T17:14:00Z,00000200,00000000,0003.18,0002.34,0001.36,0000.43,0000.31,0000.22,0000.80,0000.93,0000.60,20.2,26.5,05.6,03.8,0673.2,31.0
2021-08-26T17:15:00Z,00000200,00000000,0002.95,0002.31,0001.73,0000.56,0000.59,0000.34,0000.68,0000.45,0000.51,20.2,26.5,05.5,03.8,0673.2,31.0
2021-08-26T17:16:00Z,00000200,00000000,0004.05,0002.32,0001.53,0000.47,0000.14,0000.27,0000.40,0000.73,0000.23,20.2,26.5,05.6,03.8,0673.2,31.0
2021-08-26T17:17:00Z,00000200,00000000,0003.05,0002.64,0001.47,0000.67,0000.53,0000.40,0000.56,0000.13,0000.60,20.2,26.5,05.7,03.9,0673.2,31.0
2021-08-26T17:18:00Z,00000200,00000000,0003.90,0002.50,0001.71,0000.22,0000.47,0000.31,0000.71,0000.71,0000.56,20.2,26.5,05.6,03.8,0673.2,31.0
2021-08-26T17:19:00Z,00000200,00000000,0003.94,0002.56,0001.69,0000.81,0000.35,0000.34,0000.49,0000.26,0000.08,20.2,26.4,05.7,03.9,0673.2,31.0
2021-08-26T17:20:00Z,00000200,00000000,0003.68,0002.32,0001.39,0001.10,0000.48,-000.00,0000.63,0001.08,0000.45,20.2,26.5,05.7,03.9,0673.2,31.0
2021-08-26T17:21:00Z,00000200,00000000,0003.13,0002.02,0001.50,0001.02,0000.29,0000.28,0000.61,0000.38,0001.05,20.2,26.5,05.8,03.9,0673.2,31.0
2021-08-26T17:22:00Z,00000200,00000000,0003.03,0002.07,0001.15,0000.44,0000.18,0000.41,0000.51,0000.48,0000.46,20.2,26.5,05.9,04.0,0673.2,31.0
2021-08-26T17:23:00Z,00000200,00000000,0003.13,0002.01,0001.32,0000.26,0000.10,0000.79,0000.90,0000.82,0000.35,20.2,26.5,05.8,04.0,0673.2,31.0
2021-08-26T17:24:00Z,00000200,00000000,0003.21,0002.09,0001.33,0000.93,0000.61,0000.43,0000.27,-000.20,0000.13,20.2,26.5,05.9,04.0,0673.2,31.0
2021-08-26T17:25:00Z,00000200,00000000,0003.44,0002.32,0001.32,0000.37,0000.06,0000.05,0000.48,0000.64,0000.41,20.2,26.5,05.9,04.1,0673.2,31.0
2021-08-26T17:26:00Z,00000200,00000000,0002.86,0002.14,0001.55,0000.24,0000.47,0000.10,0000.79,0000.97,0000.84,20.2,26.5,06.0,04.1,0673.3,31.0
2021-08-26T17:27:00Z,00000200,00000000,0003.56,0002.20,0001.43,0000.52,0000.11,0000.08,0000.70,0000.48,0000.44,20.2,26.5,05.9,04.1,0673.3,31.0
2021-08-26T17:28:00Z,00000200,00000000,0002.23,0002.34,0001.83,0000.77,0000.14,0000.45,0000.28,0000.52,0000.47,20.2,26.5,06.0,04.1,0673.3,31.0
2021-08-26T17:29:00Z,00000200,00000000,0004.61,0002.47,0001.65,0000.59,0000.30,0000.23,0000.70,0000.68,0000.16,20.2,26.5,05.9,04.1,0673.3,31.0
2021-08-26T17:30:00Z,00000200,00000000,0003.73,0002.56,0001.66,0000.66,0000.24,0000.07,0000.84,0000.79,0001.00,20.2,26.5,06.0,04.1,0673.3,31.0
2021-08-26T17:31:00Z,00000200,00000000,0003.71,0002.47,0001.91,0000.71,0000.31,0000.34,0000.81,0000.47,0000.41,20.2,26.5,06.1,04.2,0673.3,31.0
2021-08-26T17:32:00Z,00000200,00000000,0003.35,0003.20,0001.76,0000.47,0000.35,0000.36,0000.35,0000.54,0000.43,20.2,26.5,06.1,04.2,0673.3,31.0
2021-08-26T17:33:00Z,00000200,00000000,0003.78,0002.76,0002.11,0000.85,0000.46,0000.25,0000.67,0000.54,0000.38,20.2,26.5,06.1,04.2,0673.4,31.0
2021-08-26T17:34:00Z,00000200,00000000,0004.26,0003.26,0001.67,0000.89,0000.40,-000.03,0000.92,0000.42,0000.58,20.2,26.5,06.1,04.2,0673.4,31.0
2021-08-26T17:35:00Z,00000200,00000000,0004.20,0002.85,0001.90,0000.42,0000.41,0000.04,0000.79,0000.86,0000.30,20.2,26.5,06.3,04.3,0673.3,31.0
2021-08-26T17:36:00Z,00000200,00000000,0003.62,0002.72,0002.00,0000.73,0000.17,0000.58,0000.30,0000.66,0000.86,20.2,26.5,06.3,04.3,0673.3,31.0
2021-08-26T17:37:00Z,00000200,00000000,0003.74,0003.10,0001.81,0001.09,0000.02,0000.34,0001.01,0000.71,0000.25,20.2,26.5,06.3,04.3,0673.3,31.0
2021-08-26T17:38:00Z,00000200,00000000,0004.10,0003.04,0002.20,-000.06,0000.37,0000.27,0000.78,0000.43,0000.73,20.2,26.5,06.4,04.4,0673.3,31.0
2021-08-26T17:39:00Z,00000200,00000000,0004.48,0002.93,0002.02,0000.86,0000.15,0000.40,0000.78,0001.34,0000.86,20.2,26.5,06.5,04.4,0673.3,31.0
2021-08-26T17:40:00Z,00000200,00000000,0004.36,0002.68,0002.26,0000.66,0000.46,0000.58,0000.57,0000.66,0000.35,20.2,26.5,06.6,04.5,0673.3,31.0
2021-08-26T17:41:00Z,00000200,00000000,0003.92,0003.02,0002.10,-000.05,0000.30,0000.43,0000.36,0000.10,0000.72,20.2,26.5,06.5,04.4,0673.3,31.0
2021-08-26T17:42:00Z,00000200,00000000,0004.03,0003.02,0001.95,0000.48,0000.43,0000.05,0000.91,0000.76,0000.47,20.2,26.5,06.5,04.4,0673.3,31.0
2021-08-26T17:43:00Z,00000200,00000000,0004.67,0002.91,0002.05,0001.09,0000.46,0000.33,0000.90,0000.92,0000.63,20.2,26.5,06.4,04.4,0673.3,31.0
2021-08-26T17:44:00Z,00000200,00000000,0004.65,0003.35,0002.43,0001.57,0000.04,0000.25,0000.79,0001.03,0000.65,20.2,26.5,06.5,04.4,0673.3,31.0
2021-08-26T17:45:00Z,00000200,00000000,0003.94,0003.41,0002.48,0001.08,0000.29,0000.48,0000.82,0000.52,0000.61,20.2,26.5,06.5,04.4,0673.3,31.0
2021-08-26T17:46:00Z,00000200,00000000,0004.27,0002.94,0002.26,0000.97,0000.46,0000.30,0000.49,0000.69,0000.53,20.2,26.5,06.5,04.5,0673.3,31.0
2021-08-26T17:47:00Z,00000200,00000000,0003.85,0002.96,0002.05,0000.11,0000.35,0000.13,0000.85,0000.47,0000.68,20.2,26.5,06.4,04.4,0673.3,31.0
2021-08-26T17:48:00Z,00000200,00000000,0004.12,0002.95,0001.97,0000.86,0000.34,0000.24,0000.63,0000.53,0000.39,20.2,26.5,06.4,04.4,0673.3,31.0
2021-08-26T17:49:00Z,00000200,00000000,0004.19,0002.84,0002.10,0000.82,0000.47,0000.35,0000.57,0000.62,0000.05,20.2,26.5,06.4,04.4,0673.3,31.0
2021-08-26T17:50:00Z,00000200,00000000,0003.80,0002.72,0002.02,0000.58,0000.17,0000.62,0000.69,0000.74,0001.05,20.2,26.5,06.5,04.4,0673.3,31.0
2021-08-26T17:51:00Z,00000200,00000000,0002.63,0002.95,0001.97,0000.70,0000.18,0000.72,0001.01,0000.88,0000.56,20.2,26.5,06.5,04.5,0673.3,31.0
2021-08-26T17:52:00Z,00000200,00000000,0003.41,0001.47,0001.34,0000.12,0000.24,0000.41,0000.49,0000.39,0000.66,20.2,26.5,06.7,04.6,0673.3,31.0
2021-08-26T17:53:00Z,00000200,00000000,0002.87,0001.91,0001.45,0000.59,0000.18,0000.02,0000.56,0000.74,0000.33,20.2,26.5,06.7,04.6,0673.3,31.0
2021-08-26T17:54:00Z,00000200,00000000,0002.88,0002.44,0001.74,0000.29,0000.32,0000.24,0000.29,0000.35,0000.21,20.2,26.5,06.8,04.6,0673.3,31.0
2021-08-26T17:55:00Z,00000200,00000000,0004.36,0002.58,0001.82,0000.70,0000.43,0000.10,-000.17,0000.03,0000.50,20.2,26.5,06.5,04.5,0673.4,31.0
2021-08-26T17:56:00Z,00000200,00000000,0004.30,0003.06,0002.04,0000.89,0000.42,0000.25,0000.44,-000.13,-000.40,20.2,26.4,06.4,04.4,0673.4,31.0
2021-08-26T17:57:00Z,00000200,40000000,,,,,,,-000.64,-000.26,-000.22,20.2,26.5,06.3,04.3,0673.4,31.0
2021-08-26T17:58:00Z,00000200,60000000,,,,,,,0000.23,-000.35,-000.14,19.9,26.6,06.1,04.1,0672.4,31.0
2021-08-26T17:59:00Z,00000200,20000000,,,,,,,0000.15,0000.83,0000.68,19.9,26.7,06.2,04.1,0672.4,31.0
